User: anonymous
Location: Unspecified
(0.0000°N, 0.0000°E)
Time: 02:51:42
(UTC+02:00)
Language:

Cosmos 1933 - Orbit

View from above orbital plane
View from above orbital plane
View from above satellite
View from above satellite

Ground track
Ground track

The orbit data is extracted from the following two-line orbital elements,

1 18958U 88020A   14257.77630295  .00002040  00000-0  15827-3 0  4174
2 18958 082.5331 353.7771 0013922 102.2794 257.9990 15.00805984440414
Epoch (UTC): 14 September 2014 18:37:52
Eccentricity: 0.0013922
inclination: 82.5331°
perigee height: 555 km
apogee height: 574 km
right ascension of ascending node: 353.7771°
argument of perigee: 102.2794°
revolutions per day: 15.00805984
mean anomaly at epoch: 257.9990°
orbit number at epoch: 44041

The dashed part of the orbit path shows where the satellite is in the earth's shadow,  

DLR